| time (UTC) | temp F | wind direction | speed MPH | gust MPH | rain 1hr in | rain 24hr in | rain mn in | humidity % | barometer mb |
| 20260503215908 | 77 | 269 | 6.0 | 13.0 | 0.00 | 0.00 | 0.00 | 48 | 1000.2 |
| 20260503215351 | 77 | 328 | 8.0 | 15.0 | 0.00 | 0.00 | 0.00 | 49 | 1000.2 |
| 20260503214356 | 77 | 300 | 8.0 | 14.0 | 0.00 | 0.00 | 0.00 | 49 | 1000.2 |
| 20260503213406 | 77 | 325 | 5.0 | 12.0 | 0.00 | 0.00 | 0.00 | 47 | 1000.2 |
| 20260503212901 | 78 | 286 | 7.0 | 11.0 | 0.00 | 0.00 | 0.00 | 48 | 1000.2 |
| 20260503211853 | 77 | 282 | 7.0 | 13.0 | 0.00 | 0.00 | 0.00 | 49 | 1000.2 |
| 20260503210908 | 76 | 293 | 8.0 | 13.0 | 0.00 | 0.00 | 0.00 | 49 | 1000.2 |
| 20260503205854 | 77 | 284 | 8.0 | 12.0 | 0.00 | 0.00 | 0.00 | 50 | 1000.2 |
| 20260503204859 | 76 | 301 | 8.0 | 13.0 | 0.00 | 0.00 | 0.00 | 50 | 1000.2 |
| 20260503203906 | 76 | 283 | 4.0 | 10.0 | 0.00 | 0.00 | 0.00 | 51 | 1000.2 |
| 20260503203355 | 76 | 271 | 4.0 | 10.0 | 0.00 | 0.00 | 0.00 | 52 | 1000.2 |
| 20260503202356 | 76 | 331 | 4.0 | 11.0 | 0.00 | 0.00 | 0.00 | 50 | 1000.2 |
| 20260503201353 | 75 | 268 | 5.0 | 10.0 | 0.00 | 0.00 | 0.00 | 52 | 1000.2 |
| 20260503200404 | 75 | 282 | 6.0 | 10.0 | 0.00 | 0.00 | 0.00 | 52 | 1000.2 |
| 20260503195848 | 74 | 328 | 4.0 | 11.0 | 0.00 | 0.00 | 0.00 | 55 | 1000.2 |
| 20260503194905 | 74 | 257 | 2.0 | 10.0 | 0.00 | 0.00 | 0.00 | 54 | 1000.2 |
| 20260503193856 | 74 | 245 | 4.0 | 9.0 | 0.00 | 0.00 | 0.00 | 55 | 1000.2 |
| 20260503192907 | 73 | 234 | 3.0 | 10.0 | 0.00 | 0.00 | 0.00 | 56 | 1000.2 |
| 20260503192404 | 73 | 312 | 4.0 | 10.0 | 0.00 | 0.00 | 0.00 | 57 | 1000.2 |
| 20260503191357 | 72 | 298 | 3.0 | 10.0 | 0.00 | 0.00 | 0.00 | 56 | 1000.2 |
| 20260503190400 | 72 | 265 | 6.0 | 11.0 | 0.00 | 0.00 | 0.00 | 58 | 1000.2 |
| 20260503185849 | 71 | 262 | 5.0 | 9.0 | 0.00 | 0.00 | 0.00 | 60 | 1000.2 |
| 20260503184908 | 72 | 313 | 1.0 | 8.0 | 0.00 | 0.00 | 0.00 | 56 | 1000.2 |
| 20260503183856 | 72 | 309 | 2.0 | 9.0 | 0.00 | 0.00 | 0.00 | 54 | 1000.2 |
| 20260503182904 | 72 | 42 | 6.0 | 10.0 | 0.00 | 0.00 | 0.00 | 52 | 1000.2 |
| 20260503181856 | 72 | 348 | 5.0 | 8.0 | 0.00 | 0.00 | 0.00 | 53 | 1000.2 |
| 20260503180859 | 71 | 256 | 1.0 | 5.0 | 0.00 | 0.00 | 0.00 | 58 | 1000.2 |
| 20260503175909 | 71 | 343 | 4.0 | 9.0 | 0.00 | 0.00 | 0.00 | 56 | 1000.2 |
| 20260503175402 | 71 | 331 | 3.0 | 9.0 | 0.00 | 0.00 | 0.00 | 57 | 1000.2 |
| 20260503174407 | 71 | 319 | 5.0 | 11.0 | 0.00 | 0.00 | 0.00 | 54 | 1000.2 |
| 20260503173407 | 71 | 295 | 2.0 | 10.0 | 0.00 | 0.00 | 0.00 | 56 | 1000.2 |
| 20260503172901 | 71 | 279 | 5.0 | 10.0 | 0.00 | 0.00 | 0.00 | 54 | 1000.2 |
| 20260503172158 | 67 | 43 | 2.0 | 8.0 | 0.00 | 0.00 | 0.00 | 65 | 1000.2 |
| 20260503150351 | 58 | 44 | 1.0 | 3.0 | 0.00 | 0.00 | 0.00 | 80 | 1000.2 |
| 20260503130900 | 51 | 9 | 2.0 | 3.0 | 0.00 | 0.00 | 0.00 | 89 | 1000.2 |
| 20260503110444 | 53 | 9 | 1.0 | 3.0 | 0.00 | 0.00 | 0.00 | 86 | 1000.2 |
| 20260503080929 | 55 | 9 | 0.0 | 2.0 | 0.00 | 0.00 | 0.00 | 83 | 1000.2 |
| 20260503080427 | 55 | 9 | 0.0 | 4.0 | 0.00 | 0.00 | 0.00 | 82 | 1000.2 |
| 20260503072924 | 55 | 17 | 0.0 | 0.0 | 0.00 | 0.00 | 0.00 | 83 | 1000.2 |
| 20260503072421 | 55 | 17 | 0.0 | 0.0 | 0.00 | 0.00 | 0.00 | 82 | 1000.2 |
| 20260503071912 | 55 | 17 | 0.0 | 0.0 | 0.00 | 0.00 | 0.00 | 82 | 1000.2 |
| 20260503070928 | 55 | 17 | 0.0 | 0.0 | 0.00 | 0.00 | 0.00 | 81 | 1000.2 |
| 20260503053933 | 58 | 279 | 0.0 | 0.0 | 0.00 | 0.00 | 0.00 | 77 | 1000.2 |
| 20260503053424 | 59 | 279 | 0.0 | 0.0 | 0.00 | 0.00 | 0.00 | 76 | 1000.2 |
| 20260503052446 | 59 | 280 | 0.0 | 0.0 | 0.00 | 0.00 | 0.00 | 75 | 1000.2 |
| 20260503051940 | 59 | 279 | 0.0 | 0.0 | 0.00 | 0.00 | 0.00 | 75 | 1000.2 |
| 20260503050933 | 59 | 273 | 0.0 | 0.0 | 0.00 | 0.00 | 0.00 | 74 | 1000.2 |
| 20260503050430 | 59 | 273 | 0.0 | 0.0 | 0.00 | 0.00 | 0.00 | 75 | 1000.2 |
| 20260503045433 | 60 | 273 | 0.0 | 0.0 | 0.00 | 0.00 | 0.00 | 73 | 1000.2 |
| 20260503044436 | 61 | 273 | 0.0 | 0.0 | 0.00 | 0.00 | 0.00 | 72 | 1000.2 |
| 20260503043432 | 61 | 273 | 0.0 | 0.0 | 0.00 | 0.00 | 0.00 | 73 | 1000.2 |
| 20260503042930 | 61 | 273 | 0.0 | 0.0 | 0.00 | 0.00 | 0.00 | 73 | 1000.2 |
| 20260503041939 | 62 | 273 | 0.0 | 1.0 | 0.00 | 0.00 | 0.00 | 72 | 1000.2 |
| 20260503040933 | 62 | 256 | 0.0 | 1.0 | 0.00 | 0.00 | 0.00 | 73 | 1000.2 |
| 20260503040428 | 62 | 280 | 0.0 | 1.0 | 0.00 | 0.00 | 0.00 | 72 | 1000.2 |
| 20260503035437 | 64 | 278 | 0.0 | 2.0 | 0.00 | 0.00 | 0.00 | 68 | 1000.2 |
| 20260503034439 | 65 | 282 | 0.0 | 3.0 | 0.00 | 0.00 | 0.00 | 65 | 1000.2 |
| 20260503033433 | 65 | 286 | 0.0 | 2.0 | 0.00 | 0.00 | 0.00 | 66 | 1000.2 |
| 20260503032929 | 66 | 283 | 0.0 | 2.0 | 0.00 | 0.00 | 0.00 | 61 | 1000.2 |
| 20260503031934 | 66 | 285 | 1.0 | 3.0 | 0.00 | 0.00 | 0.00 | 62 | 1000.2 |
| 20260503031429 | 67 | 285 | 2.0 | 3.0 | 0.00 | 0.00 | 0.00 | 60 | 1000.2 |
| 20260503030442 | 68 | 286 | 2.0 | 4.0 | 0.00 | 0.00 | 0.00 | 59 | 1000.2 |
| 20260503025937 | 67 | 281 | 2.0 | 4.0 | 0.00 | 0.00 | 0.00 | 60 | 1000.2 |
| 20260503024934 | 70 | 341 | 1.0 | 3.0 | 0.00 | 0.00 | 0.00 | 55 | 1000.2 |
| 20260503024431 | 70 | 5 | 1.0 | 4.0 | 0.00 | 0.00 | 0.00 | 53 | 1000.2 |
| 20260503023932 | 71 | 17 | 2.0 | 5.0 | 0.00 | 0.00 | 0.00 | 51 | 1000.2 |
| 20260503022947 | 71 | 21 | 0.0 | 11.0 | 0.00 | 0.00 | 0.00 | 50 | 1000.2 |
| 20260503022441 | 71 | 44 | 2.0 | 11.0 | 0.00 | 0.00 | 0.00 | 51 | 1000.2 |
| 20260503021936 | 71 | 281 | 2.0 | 6.0 | 0.00 | 0.00 | 0.00 | 51 | 1000.2 |
| 20260503021427 | 71 | 316 | 3.0 | 5.0 | 0.00 | 0.00 | 0.00 | 51 | 1000.2 |
| 20260503020427 | 72 | 261 | 4.0 | 9.0 | 0.00 | 0.00 | 0.00 | 51 | 1000.2 |
| 20260503015923 | 72 | 344 | 3.0 | 9.0 | 0.00 | 0.00 | 0.00 | 51 | 1000.2 |
| 20260503014939 | 72 | 285 | 6.0 | 10.0 | 0.00 | 0.00 | 0.00 | 52 | 1000.2 |
| 20260503014434 | 72 | 49 | 0.0 | 10.0 | 0.00 | 0.00 | 0.00 | 52 | 1000.2 |
| 20260503013927 | 73 | 242 | 2.0 | 10.0 | 0.00 | 0.00 | 0.00 | 53 | 1000.2 |
| 20260503012941 | 73 | 338 | 6.0 | 13.0 | 0.00 | 0.00 | 0.00 | 54 | 1000.2 |
| 20260503011935 | 73 | 11 | 8.0 | 13.0 | 0.00 | 0.00 | 0.00 | 54 | 1000.2 |
| 20260503011433 | 73 | 285 | 5.0 | 11.0 | 0.00 | 0.00 | 0.00 | 56 | 1000.2 |
| 20260503010922 | 73 | 308 | 3.0 | 11.0 | 0.00 | 0.00 | 0.00 | 57 | 1000.2 |
| 20260503005949 | 73 | 270 | 5.0 | 10.0 | 0.00 | 0.00 | 0.00 | 57 | 1000.2 |
| 20260503005443 | 73 | 287 | 6.0 | 11.0 | 0.00 | 0.00 | 0.00 | 57 | 1000.2 |
| 20260503004938 | 72 | 309 | 6.0 | 10.0 | 0.00 | 0.00 | 0.00 | 58 | 1000.2 |
| 20260503004434 | 72 | 285 | 6.0 | 14.0 | 0.00 | 0.00 | 0.00 | 58 | 1000.2 |
| 20260503003436 | 73 | 277 | 6.0 | 15.0 | 0.00 | 0.00 | 0.00 | 58 | 1000.2 |
| 20260503002934 | 73 | 304 | 8.0 | 15.0 | 0.00 | 0.00 | 0.00 | 57 | 1000.2 |
| 20260503001930 | 73 | 287 | 8.0 | 12.0 | 0.00 | 0.00 | 0.00 | 57 | 1000.2 |
| 20260503000935 | 73 | 302 | 5.0 | 10.0 | 0.00 | 0.00 | 0.00 | 57 | 1000.2 |
| 20260502235940 | 73 | 289 | 4.0 | 12.0 | 0.00 | 0.00 | 0.00 | 57 | 1000.2 |
| 20260502234940 | 73 | 278 | 6.0 | 13.0 | 0.00 | 0.00 | 0.00 | 57 | 1000.2 |
| 20260502234424 | 73 | 282 | 5.0 | 12.0 | 0.00 | 0.00 | 0.00 | 56 | 1000.2 |
| 20260502233916 | 73 | 310 | 8.0 | 12.0 | 0.00 | 0.00 | 0.00 | 57 | 1000.2 |
| 20260502232925 | 73 | 294 | 6.0 | 12.0 | 0.00 | 0.00 | 0.00 | 58 | 1000.2 |
| 20260502231938 | 72 | 265 | 5.0 | 11.0 | 0.00 | 0.00 | 0.00 | 57 | 1000.2 |
| 20260502231431 | 73 | 286 | 7.0 | 12.0 | 0.00 | 0.00 | 0.00 | 57 | 1000.2 |
| 20260502230439 | 72 | 260 | 7.0 | 13.0 | 0.00 | 0.00 | 0.00 | 58 | 1000.2 |
| 20260502225936 | 73 | 252 | 9.0 | 13.0 | 0.00 | 0.00 | 0.00 | 57 | 1000.2 |
| 20260502225433 | 72 | 318 | 3.0 | 9.0 | 0.00 | 0.00 | 0.00 | 57 | 1000.2 |
| 20260502224925 | 73 | 225 | 3.0 | 15.0 | 0.00 | 0.00 | 0.00 | 56 | 1000.2 |
| 20260502223933 | 72 | 295 | 4.0 | 12.0 | 0.00 | 0.00 | 0.00 | 56 | 1000.2 |
| 20260502222942 | 72 | 266 | 7.0 | 15.0 | 0.00 | 0.00 | 0.00 | 57 | 1000.2 |
| 20260502222425 | 72 | 273 | 6.0 | 13.0 | 0.00 | 0.00 | 0.00 | 57 | 1000.2 |
| 20260502221432 | 72 | 316 | 7.0 | 12.0 | 0.00 | 0.00 | 0.00 | 58 | 1000.2 |
| 20260502220429 | 72 | 273 | 6.0 | 13.0 | 0.00 | 0.00 | 0.00 | 58 | 1000.2 |